N76SAM VGHS-VECC

Flight info

Callsign N76SAM
Flight time N/A
Altitude 12000
Route IKOGU2 IKOGU A462 BEMAK BEMA2A
Aircraft A20N/M-VGD/A

Departure

Time 2026-04-27 04:43
Airport Hazrat Shahjalal International Airport (VGHS)

Arrival

Time N/A
Airport Netaji Subhash Chandra Bose International Airport (VECC)
Time Latitude Longitude Altitude Speed Heading
2026-04-27 04:42 23.83701 90.40277 39 ft 0 kts 324°
2026-04-27 04:43 23.83872 90.40142 38 ft 77 kts 324°
2026-04-27 04:43 23.84563 90.39595 54 ft 164 kts 324°
2026-04-27 04:43 23.85570 90.38800 752 ft 189 kts 324°
2026-04-27 04:44 23.86688 90.37976 1892 ft 199 kts 335°
2026-04-27 04:44 23.88086 90.37877 3029 ft 215 kts 23°
2026-04-27 04:44 23.89205 90.38993 4147 ft 235 kts 64°
2026-04-27 04:44 23.89448 90.40877 4692 ft 274 kts 101°
2026-04-27 04:45 23.88602 90.42698 4903 ft 271 kts 136°
2026-04-27 04:45 23.86957 90.43649 4996 ft 271 kts 172°
2026-04-27 04:45 23.85142 90.43392 5033 ft 269 kts 207°
2026-04-27 04:45 23.83667 90.42152 5031 ft 269 kts 225°
2026-04-27 04:46 23.82406 90.40653 5015 ft 267 kts 230°
2026-04-27 04:46 23.81137 90.38911 5009 ft 322 kts 233°
2026-04-27 04:46 23.79815 90.36930 5010 ft 321 kts 235°
2026-04-27 04:46 23.78544 90.34917 5486 ft 321 kts 236°
2026-04-27 04:47 23.77298 90.32885 6596 ft 322 kts 237°
2026-04-27 04:47 23.76057 90.30834 7987 ft 327 kts 237°
2026-04-27 04:47 23.74793 90.28736 9294 ft 334 kts 237°
2026-04-27 04:47 23.73499 90.26593 10553 ft 341 kts 237°
2026-04-27 04:48 23.72188 90.24426 11348 ft 346 kts 237°
2026-04-27 04:48 23.70826 90.22183 11729 ft 365 kts 237°
2026-04-27 04:48 23.69371 90.19793 11899 ft 401 kts 236°
2026-04-27 04:48 23.67785 90.17198 11953 ft 412 kts 236°
2026-04-27 04:49 23.66194 90.14600 11980 ft 411 kts 236°
2026-04-27 04:49 23.64598 90.12003 11997 ft 412 kts 236°
2026-04-27 04:49 23.63001 90.09410 11997 ft 412 kts 236°
2026-04-27 04:49 23.61418 90.06798 11999 ft 411 kts 237°
2026-04-27 04:50 23.59887 90.04167 11998 ft 412 kts 238°
2026-04-27 04:50 23.58376 90.01514 11996 ft 412 kts 238°
2026-04-27 04:50 23.56880 89.98859 11996 ft 410 kts 239°
2026-04-27 04:50 23.55390 89.96198 12000 ft 412 kts 239°
2026-04-27 04:51 23.53900 89.93530 12001 ft 411 kts 239°
2026-04-27 04:51 23.52433 89.90899 12002 ft 411 kts 239°
2026-04-27 04:51 23.50945 89.88232 12005 ft 412 kts 239°
2026-04-27 04:51 23.49452 89.85558 12002 ft 411 kts 239°
2026-04-27 04:52 23.47964 89.82896 11998 ft 411 kts 239°
2026-04-27 04:52 23.46471 89.80227 11996 ft 412 kts 239°
2026-04-27 04:52 23.44977 89.77559 12000 ft 412 kts 239°
2026-04-27 04:52 23.43505 89.74933 11998 ft 411 kts 239°
2026-04-27 04:53 23.42013 89.72275 12001 ft 411 kts 239°
2026-04-27 04:53 23.40519 89.69617 12000 ft 412 kts 238°
2026-04-27 04:53 23.39009 89.66958 12000 ft 412 kts 238°
2026-04-27 04:53 23.37483 89.64326 11997 ft 411 kts 238°
2026-04-27 04:54 23.35942 89.61699 11997 ft 411 kts 237°
2026-04-27 04:54 23.34391 89.59075 12001 ft 412 kts 237°
2026-04-27 04:54 23.32835 89.56458 11998 ft 412 kts 237°
2026-04-27 04:54 23.31279 89.53847 11998 ft 411 kts 237°
2026-04-27 04:55 23.29739 89.51269 11997 ft 411 kts 237°
2026-04-27 04:55 23.28176 89.48656 12000 ft 412 kts 237°
2026-04-27 04:55 23.26614 89.46047 12001 ft 411 kts 237°
2026-04-27 04:55 23.25049 89.43435 12012 ft 412 kts 237°
2026-04-27 04:56 23.23481 89.40821 12518 ft 413 kts 237°
2026-04-27 04:56 23.21907 89.38199 13504 ft 416 kts 237°
2026-04-27 04:56 23.20855 89.36448 14171 ft 420 kts 237°
2026-04-27 04:56 23.18711 89.32880 15432 ft 428 kts 237°
2026-04-27 04:57 23.17068 89.30150 16337 ft 435 kts 237°
2026-04-27 04:57 23.15947 89.28286 16921 ft 439 kts 237°
2026-04-27 04:57 23.14296 89.25543 17994 ft 429 kts 237°
2026-04-27 04:57 23.12689 89.22876 19271 ft 423 kts 237°
2026-04-27 04:58 23.11092 89.20225 20550 ft 416 kts 237°
2026-04-27 04:58 23.09521 89.17623 21833 ft 407 kts 237°
2026-04-27 04:58 23.07989 89.15083 23116 ft 397 kts 237°
2026-04-27 04:58 23.06498 89.12613 24398 ft 385 kts 237°
2026-04-27 04:59 23.05057 89.10229 25676 ft 371 kts 237°
2026-04-27 04:59 23.03670 89.07934 26954 ft 355 kts 237°
2026-04-27 04:59 23.02298 89.05666 27354 ft 364 kts 237°
2026-04-27 04:59 23.00929 89.03404 28013 ft 366 kts 237°
2026-04-27 05:00 22.99534 89.01099 28796 ft 360 kts 237°
2026-04-27 05:00 22.98125 88.98772 29070 ft 367 kts 237°
2026-04-27 05:00 22.96724 88.96458 29513 ft 376 kts 237°
2026-04-27 05:00 22.95300 88.94109 30316 ft 368 kts 237°
2026-04-27 05:01 22.93848 88.91743 30496 ft 378 kts 236°
2026-04-27 05:01 22.92365 88.89382 30828 ft 387 kts 236°
2026-04-27 05:01 22.90861 88.87023 31713 ft 377 kts 235°
2026-04-27 05:01 22.89327 88.84639 31170 ft 406 kts 235°
2026-04-27 05:02 22.87643 88.82041 30595 ft 435 kts 235°
2026-04-27 05:02 22.85850 88.79291 30271 ft 459 kts 235°
2026-04-27 05:02 22.83608 88.72835 29769 ft 460 kts 269°
2026-04-27 05:03 22.84098 88.69444 28818 ft 455 kts 290°
2026-04-27 05:03 22.85652 88.66506 27818 ft 450 kts 311°
2026-04-27 05:03 22.88068 88.64398 26867 ft 443 kts 333°
2026-04-27 05:03 22.90936 88.63426 25915 ft 437 kts 354°
2026-04-27 05:04 22.93923 88.63671 24958 ft 431 kts 15°
2026-04-27 05:04 22.96710 88.64796 24018 ft 424 kts 23°
2026-04-27 05:04 22.99396 88.66083 23084 ft 418 kts 24°
2026-04-27 05:04 23.02021 88.67387 22158 ft 412 kts 24°
2026-04-27 05:05 23.04608 88.68681 21235 ft 406 kts 24°
2026-04-27 05:05 23.07167 88.69949 20320 ft 400 kts 24°
2026-04-27 05:05 23.09692 88.71180 19416 ft 395 kts 24°
2026-04-27 05:05 23.12192 88.72374 18472 ft 393 kts 23°
2026-04-27 05:06 23.14753 88.73535 17222 ft 399 kts 21°
2026-04-27 05:06 23.17362 88.74552 15988 ft 399 kts 18°
2026-04-27 05:06 23.20021 88.75412 14737 ft 397 kts 15°
2026-04-27 05:06 23.22696 88.76125 13492 ft 394 kts 12°
2026-04-27 05:07 23.25344 88.76704 12269 ft 391 kts 10°
2026-04-27 05:07 23.28026 88.77185 11022 ft 387 kts
2026-04-27 05:07 23.30684 88.77573 9784 ft 383 kts
2026-04-27 05:07 23.33320 88.77885 8543 ft 379 kts
2026-04-27 05:08 23.35931 88.78136 7315 ft 375 kts
2026-04-27 05:08 23.38520 88.78335 6131 ft 370 kts
2026-04-27 05:08 23.41028 88.78488 5513 ft 351 kts
2026-04-27 05:08 23.43380 88.78604 5233 ft 326 kts
2026-04-27 05:09 23.45560 88.78696 5115 ft 300 kts
2026-04-27 05:09 23.47564 88.78771 5043 ft 276 kts
2026-04-27 05:09 23.49388 88.78827 5028 ft 255 kts
2026-04-27 05:09 23.51092 88.78870 5019 ft 235 kts
2026-04-27 05:10 23.52668 88.78900 5019 ft 218 kts
2026-04-27 05:10 23.54123 88.78923 5013 ft 201 kts
2026-04-27 05:10 23.55506 88.78935 5020 ft 198 kts 360°
2026-04-27 05:10 23.56887 88.78946 5019 ft 198 kts 360°
2026-04-27 05:11 23.58258 88.78952 5023 ft 197 kts 359°
2026-04-27 05:11 23.59630 88.78949 5021 ft 197 kts 359°
2026-04-27 05:11 23.61007 88.78945 5026 ft 197 kts 359°
2026-04-27 05:11 23.62375 88.78932 5027 ft 197 kts 359°
2026-04-27 05:12 23.63731 88.78919 5023 ft 197 kts 359°
2026-04-27 05:12 23.65104 88.78906 5030 ft 197 kts 359°
2026-04-27 05:12 23.66473 88.78892 5026 ft 197 kts 359°
2026-04-27 05:12 23.67843 88.78882 5022 ft 197 kts 359°
2026-04-27 05:13 23.69249 88.78883 5027 ft 222 kts 360°
2026-04-27 05:13 23.71016 88.78877 5010 ft 276 kts 359°
2026-04-27 05:13 23.72911 88.78854 5013 ft 270 kts 359°
2026-04-27 05:13 23.74788 88.78837 5000 ft 270 kts 359°
2026-04-27 05:14 23.76661 88.78823 4996 ft 269 kts 359°
2026-04-27 05:14 23.78673 88.78809 5003 ft 318 kts 359°
2026-04-27 05:14 23.81064 88.78789 5012 ft 374 kts 359°
2026-04-27 05:14 23.83684 88.78768 5001 ft 374 kts 359°
2026-04-27 05:15 23.86300 88.78749 5000 ft 376 kts 359°
2026-04-27 05:15 23.88912 88.78734 5001 ft 374 kts 359°
2026-04-27 05:15 23.91518 88.78718 5000 ft 376 kts 359°
2026-04-27 05:15 23.94130 88.78702 4997 ft 375 kts 359°
2026-04-27 05:16 23.96740 88.78685 4999 ft 375 kts 359°
2026-04-27 05:16 23.99350 88.78669 5008 ft 375 kts 359°
2026-04-27 05:16 24.01960 88.78653 5006 ft 374 kts 359°
2026-04-27 05:16 24.04569 88.78634 5010 ft 375 kts 359°
2026-04-27 05:17 24.07149 88.78617 5007 ft 375 kts 359°
2026-04-27 05:17 24.09768 88.78599 5005 ft 375 kts 359°
2026-04-27 05:17 24.12376 88.78589 5002 ft 375 kts
2026-04-27 05:17 24.14988 88.78663 5000 ft 375 kts
2026-04-27 05:18 24.17591 88.78747 4991 ft 374 kts
2026-04-27 05:18 24.20204 88.78784 4995 ft 375 kts 360°
2026-04-27 05:18 24.22815 88.78753 4996 ft 375 kts 358°
2026-04-27 05:18 24.25423 88.78650 5001 ft 374 kts 357°
2026-04-27 05:19 24.27872 88.78478 4999 ft 338 kts 355°
2026-04-27 05:19 24.30093 88.78192 5005 ft 306 kts 350°
2026-04-27 05:19 24.32080 88.77697 5006 ft 281 kts 342°
2026-04-27 05:19 24.33883 88.76901 5005 ft 280 kts 330°
2026-04-27 05:20 24.35481 88.75697 5006 ft 278 kts 317°
2026-04-27 05:20 24.36758 88.74107 5006 ft 278 kts 304°
2026-04-27 05:20 24.37664 88.72241 5006 ft 278 kts 290°
2026-04-27 05:20 24.38145 88.70189 5011 ft 277 kts 277°
2026-04-27 05:21 24.38159 88.68079 5006 ft 277 kts 264°
2026-04-27 05:21 24.37729 88.66018 5005 ft 278 kts 249°
2026-04-27 05:21 24.36873 88.64125 5000 ft 277 kts 236°
2026-04-27 05:21 24.35625 88.62513 4998 ft 278 kts 223°
2026-04-27 05:22 24.34013 88.61377 5006 ft 278 kts 199°
2026-04-27 05:22 24.32140 88.60816 4998 ft 279 kts 192°
2026-04-27 05:22 24.30311 88.60428 5001 ft 279 kts 190°
2026-04-27 05:22 24.30250 88.60416 5002 ft 279 kts 190°
2026-04-27 05:23 23.83170 90.40574 27 ft 0 kts 92°